When you browse on this site, cookies collect data to enhance your experience and personalize the content and advertising you see.
Visit our Privacy Policy to learn more. By continuing to use the site, you agree to this use of cookies and data.
  • Em Portugal
  • Lista de países
  • Para 7 dias
  • Temperatura da água
  • Mapas de satélite
  • Mapa do tempo
  • Widgets de tempo
  • user-avatar
    Iniciar Sessão

    Previsão horária em Cork

    Hoje, 20 Novembro, Terça-feira

    Tempo Temperatura Precipitação Vento Pressão Humidade
    00:00 +4°C° 0.1 mm 6 m/s 760 mmHg 85%
    01:00 +3°C° 0.1 mm 7 m/s 759 mmHg 87%
    02:00 +3°C° 0.1 mm 7 m/s 759 mmHg 88%
    03:00 +2°C° 0.1 mm 7 m/s 759 mmHg 88%
    04:00 +2°C° 0.1 mm 7 m/s 759 mmHg 89%
    05:00 0°C° 0 mm 7 m/s 759 mmHg 90%
    06:00 +2°C° 0.1 mm 7 m/s 758 mmHg 90%
    07:00 +2°C° 0.1 mm 7 m/s 758 mmHg 89%
    08:00 +2°C° 0.1 mm 7 m/s 758 mmHg 88%
    09:00 +3°C° 0.2 mm 7 m/s 758 mmHg 85%
    10:00 +4°C° 0.2 mm 7 m/s 757 mmHg 81%
    11:00 +5°C° 0.2 mm 8 m/s 757 mmHg 77%
    12:00 +5°C° 0.3 mm 7 m/s 757 mmHg 78%
    13:00 +5°C° 0.3 mm 7 m/s 756 mmHg 78%
    14:00 +5°C° 0.3 mm 7 m/s 756 mmHg 79%
    15:00 +4°C° 0.2 mm 6 m/s 755 mmHg 83%
    16:00 +3°C° 0.2 mm 6 m/s 755 mmHg 87%
    17:00 +3°C° 0.2 mm 6 m/s 755 mmHg 91%
    18:00 +3°C° 0.2 mm 6 m/s 754 mmHg 91%
    19:00 +3°C° 0.2 mm 6 m/s 754 mmHg 92%
    20:00 +3°C° 0.2 mm 6 m/s 754 mmHg 93%
    21:00 +2°C° 0.1 mm 6 m/s 754 mmHg 93%
    22:00 +2°C° 0.1 mm 6 m/s 753 mmHg 93%
    23:00 +2°C° 0.1 mm 5 m/s 753 mmHg 93%

    Amanhã, 21 Novembro, Quarta-feira

    Tempo Temperatura Precipitação Vento Pressão Humidade
    00:00 +1°C° 0.1 mm 5 m/s 753 mmHg 93%
    01:00 +1°C° 0.1 mm 5 m/s 753 mmHg 93%
    02:00 0°C° 0.1 mm 5 m/s 752 mmHg 93%
    03:00 0°C° 0 mm 5 m/s 752 mmHg 93%
    04:00 0°C° 0 mm 4 m/s 752 mmHg 94%
    05:00 -1°C° 0 mm 4 m/s 752 mmHg 94%
    06:00 -1°C° 0 mm 4 m/s 752 mmHg 93%
    07:00 +1°C° 0 mm 3 m/s 752 mmHg 93%
    08:00 +1°C° 0 mm 3 m/s 752 mmHg 93%
    09:00 +2°C° 0 mm 3 m/s 752 mmHg 88%
    10:00 +3°C° 0 mm 3 m/s 752 mmHg 83%
    11:00 +5°C° 0 mm 3 m/s 752 mmHg 79%
    12:00 +5°C° 0 mm 3 m/s 752 mmHg 79%
    13:00 +5°C° 0 mm 3 m/s 752 mmHg 80%
    14:00 +5°C° 0 mm 3 m/s 752 mmHg 80%
    15:00 +4°C° 0 mm 4 m/s 753 mmHg 83%
    16:00 +3°C° 0 mm 4 m/s 753 mmHg 86%
    17:00 +1°C° 0 mm 4 m/s 753 mmHg 88%
    18:00 +1°C° 0.9 mm 5 m/s 753 mmHg 89%
    19:00 +2°C° 0.9 mm 6 m/s 754 mmHg 89%
    20:00 +2°C° 0.9 mm 6 m/s 754 mmHg 89%
    21:00 +3°C° 1.8 mm 7 m/s 754 mmHg 89%
    22:00 +4°C° 1.8 mm 7 m/s 754 mmHg 89%
    23:00 +5°C° 1.8 mm 8 m/s 755 mmHg 89%

    Depois de amanhã, 22 Novembro, Quinta-feira

    Tempo Temperatura Precipitação Vento Pressão Humidade
    00:00 +5°C° 0.3 mm 8 m/s 755 mmHg 88%
    01:00 +5°C° 0.3 mm 7 m/s 755 mmHg 88%
    02:00 +5°C° 0.3 mm 7 m/s 755 mmHg 88%
    03:00 +5°C° 0.1 mm 7 m/s 755 mmHg 87%
    04:00 +5°C° 0.1 mm 8 m/s 755 mmHg 87%
    05:00 +4°C° 0.1 mm 8 m/s 755 mmHg 87%
    06:00 +3°C° 0 mm 9 m/s 755 mmHg 86%
    07:00 +3°C° 0 mm 9 m/s 755 mmHg 86%
    08:00 +3°C° 0 mm 9 m/s 755 mmHg 85%
    09:00 +5°C° 0 mm 10 m/s 755 mmHg 83%
    10:00 +5°C° 0 mm 10 m/s 755 mmHg 81%
    11:00 +5°C° 0 mm 10 m/s 756 mmHg 79%
    12:00 +5°C° 0 mm 10 m/s 755 mmHg 79%
    13:00 +5°C° 0 mm 9 m/s 755 mmHg 79%
    14:00 +5°C° 0 mm 9 m/s 755 mmHg 79%
    15:00 +3°C° 0 mm 9 m/s 755 mmHg 81%
    16:00 +4°C° 0 mm 8 m/s 755 mmHg 83%
    17:00 +2°C° 0 mm 8 m/s 755 mmHg 85%
    18:00 +4°C° 0.2 mm 8 m/s 755 mmHg 86%
    19:00 +4°C° 0.2 mm 8 m/s 756 mmHg 88%
    20:00 +4°C° 0.2 mm 8 m/s 756 mmHg 89%
    21:00 +4°C° 0.4 mm 7 m/s 756 mmHg 90%
    22:00 +5°C° 0.4 mm 7 m/s 756 mmHg 91%
    23:00 +5°C° 0.4 mm 6 m/s 756 mmHg 91%

    23 Novembro, Sexta-feira

    Tempo Temperatura Precipitação Vento Pressão Humidade
    00:00 +7°C° 0.3 mm 6 m/s 756 mmHg 92%
    01:00 +7°C° 0.3 mm 5 m/s 756 mmHg 92%
    02:00 +7°C° 0.3 mm 4 m/s 755 mmHg 93%
    03:00 +7°C° 0.1 mm 4 m/s 755 mmHg 94%
    04:00 +8°C° 0.1 mm 3 m/s 755 mmHg 94%
    05:00 +7°C° 0.1 mm 3 m/s 755 mmHg 95%
    06:00 +7°C° 0 mm 2 m/s 756 mmHg 95%
    07:00 +7°C° 0 mm 2 m/s 756 mmHg 95%
    08:00 +8°C° 0 mm 1 m/s 756 mmHg 95%
    09:00 +8°C° 0 mm 2 m/s 756 mmHg 93%
    10:00 +8°C° 0 mm 2 m/s 756 mmHg 92%
    11:00 +9°C° 0 mm 3 m/s 756 mmHg 90%
    12:00 +9°C° 0 mm 3 m/s 755 mmHg 89%
    13:00 +9°C° 0 mm 3 m/s 755 mmHg 88%
    14:00 +8°C° 0 mm 4 m/s 755 mmHg 87%
    15:00 +7°C° 0 mm 4 m/s 755 mmHg 90%
    16:00 +6°C° 0 mm 4 m/s 755 mmHg 93%
    17:00 +5°C° 0 mm 5 m/s 755 mmHg 96%
    18:00 +6°C° 0.2 mm 5 m/s 755 mmHg 96%
    19:00 +6°C° 0.2 mm 4 m/s 756 mmHg 96%
    20:00 +6°C° 0.2 mm 4 m/s 756 mmHg 97%
    21:00 +6°C° 0.1 mm 4 m/s 756 mmHg 97%
    22:00 +6°C° 0.1 mm 4 m/s 756 mmHg 96%
    23:00 +6°C° 0.1 mm 4 m/s 756 mmHg 96%

    24 Novembro, Sábado

    Tempo Temperatura Precipitação Vento Pressão Humidade
    00:00 +6°C° 0.1 mm 4 m/s 756 mmHg 97%
    01:00 +6°C° 0.1 mm 4 m/s 756 mmHg 97%
    02:00 +6°C° 0.1 mm 4 m/s 756 mmHg 97%
    03:00 +5°C° 0 mm 4 m/s 757 mmHg 97%
    04:00 +5°C° 0 mm 4 m/s 757 mmHg 97%
    05:00 +5°C° 0 mm 4 m/s 757 mmHg 97%
    06:00 +5°C° 0 mm 4 m/s 757 mmHg 97%
    07:00 +5°C° 0 mm 5 m/s 758 mmHg 96%
    08:00 +6°C° 0 mm 5 m/s 758 mmHg 96%
    09:00 +6°C° 0 mm 5 m/s 759 mmHg 92%
    10:00 +7°C° 0 mm 5 m/s 759 mmHg 89%
    11:00 +8°C° 0 mm 5 m/s 759 mmHg 86%
    12:00 +8°C° 0 mm 4 m/s 759 mmHg 86%
    13:00 +8°C° 0 mm 4 m/s 759 mmHg 86%
    14:00 +7°C° 0 mm 4 m/s 759 mmHg 86%
    15:00 +7°C° 0 mm 4 m/s 759 mmHg 87%
    16:00 +6°C° 0 mm 4 m/s 759 mmHg 88%
    17:00 +5°C° 0 mm 4 m/s 760 mmHg 89%
    18:00 +5°C° 0 mm 4 m/s 760 mmHg 89%
    19:00 +5°C° 0 mm 3 m/s 760 mmHg 88%
    20:00 +5°C° 0 mm 3 m/s 761 mmHg 88%
    21:00 +5°C° 0 mm 3 m/s 761 mmHg 89%
    22:00 +4°C° 0 mm 3 m/s 761 mmHg 90%
    23:00 +4°C° 0 mm 3 m/s 761 mmHg 91%

    25 Novembro, Domingo

    Tempo Temperatura Precipitação Vento Pressão Humidade
    00:00 +4°C° 0 mm 3 m/s 761 mmHg 92%
    01:00 +3°C° 0 mm 3 m/s 760 mmHg 93%
    02:00 +3°C° 0 mm 3 m/s 760 mmHg 95%
    03:00 +3°C° 0 mm 3 m/s 760 mmHg 95%
    04:00 +3°C° 0 mm 3 m/s 761 mmHg 95%
    05:00 +3°C° 0 mm 3 m/s 761 mmHg 95%
    06:00 +3°C° 0 mm 3 m/s 761 mmHg 95%
    07:00 +3°C° 0 mm 3 m/s 761 mmHg 95%
    08:00 +3°C° 0 mm 4 m/s 761 mmHg 95%
    09:00 +4°C° 0 mm 4 m/s 761 mmHg 91%
    10:00 +6°C° 0 mm 5 m/s 761 mmHg 87%
    11:00 +7°C° 0 mm 5 m/s 761 mmHg 83%
    12:00 +7°C° 0 mm 5 m/s 760 mmHg 84%
    13:00 +7°C° 0 mm 5 m/s 760 mmHg 84%
    14:00 +7°C° 0 mm 4 m/s 759 mmHg 85%
    15:00 +6°C° 0.1 mm 5 m/s 759 mmHg 88%
    16:00 +6°C° 0.1 mm 5 m/s 759 mmHg 91%
    17:00 +5°C° 0.1 mm 5 m/s 759 mmHg 94%
    18:00 +5°C° 0.1 mm 5 m/s 759 mmHg 93%
    19:00 +5°C° 0.1 mm 6 m/s 759 mmHg 92%
    20:00 +5°C° 0.1 mm 6 m/s 759 mmHg 91%
    21:00 +5°C° 0.1 mm 6 m/s 758 mmHg 91%
    22:00 +5°C° 0.1 mm 7 m/s 758 mmHg 90%
    23:00 +6°C° 0.1 mm 7 m/s 757 mmHg 89%
    Mostrar mais